2018-094A (43710 NORAD) Tracking and Keplerian Element Data

This shows tracking and keplerian element data for the satellite.

Feedback or suggestion? Click here.




ElementValue
Catalog43710
Name2018-094A
Epoch Orbit313
Epoch Day344.54320994
Epoch Year2018
RAAN349.1534
Inclination97.4062
Eccentricity0.0013658
Argument of Perigee188.3468
Mean Anonmoly271.0289
Mean Motion15.23276826
Decay Rate2.99E-06
L11 43710U 18094A 18344.54320994 .00000299 00000-0 15593-4 0 9990
L22 43710 97.4062 349.1534 0013658 188.3468 271.0289 15.23276826 3133

Live tracking and technical data element details for 2018-094A (NORAD 43710). 2018-094A can be tracked NOW for your location showing map with azimuth and elevation plus other details from your city location.

Track the satellite on the map from your city or location and see movement details for azimuth, elevation, latitude, longitude, range, height, and movement on the map or in text.







IsCatalogInMostPopularTable: catalog: 43710, numindb: 13
Update: records affected: 1



GetName: 43710 2018-094A

Hit Count: updated at: Tue, 11 Dec 2018 03:31:31 GMT